Lamoni, IA

7:10 PM CST on February 27, 2017 (GMT -0600)
Lamoni Municipal

Weather History for KLWD - October, 2013

Change the Weather History Date:

Monday, October 14, 2013

  Actual Average Record
Temperature  
Mean Temperature 56 °F 54 °F  
Max Temperature 68 °F 65 °F 86 °F (1963)
Min Temperature 44 °F 43 °F 27 °F (2006)
Degree Days  
Heating Degree Days 9 11  
Month to date heating degree days 72 133  
Since 1 July heating degree days 120 233  
Cooling Degree Days 0 0  
Month to date cooling degree days 30 11  
Year to date cooling degree days 1093 944  
Growing Degree Days 6 (Base 50)    
Moisture  
Dew Point 39 °F    
Average Humidity 50    
Maximum Humidity 65    
Minimum Humidity 34    
Precipitation  
Precipitation 0.12 in 0.10 in 1.97 in (1967)
Month to date precipitation 0.85 1.11  
Sea Level Pressure  
Sea Level Pressure 30.10 in    
Wind  
Wind Speed 11 mph (SE)    
Max Wind Speed 24 mph    
Max Gust Speed 33 mph    
Visibility 10 miles    
Events Rain    
T = Trace of Precipitation, MM = Missing Value Source: NWS Daily Summary

Daily Weather History Graph

Daily Weather History Graph

Search for Another Location

Airport or City:

Trip Planner

Search our weather history database for the weather conditions in past years. The results will help you decide how hot, cold, wet, or windy it might be!

Date:

Astronomy

Oct. 14, 2013 Rise Set
Actual Time 7:25 AM CDT 6:36 PM CDT
Civil Twilight 6:58 AM CDT 7:03 PM CDT
Nautical Twilight 6:26 AM CDT 7:35 PM CDT
Astronomical Twilight 5:54 AM CDT 8:07 PM CDT
Moon 4:07 PM CDT (10/14) 2:42 AM CDT (10/14)
Length of Visible Light 12h 05m
Length of Day
11h 10m
Waxing Gibbous, 79% of the Moon is Illuminated
Oct 14
Waxing Gibbous
Oct 18
Full
Oct 26
Last Quarter
Nov 3
New
Nov 9
First Quarter

Hourly Weather History & Observations

Time (CDT) Temp. Windchill Dew Point Humidity Pressure Visibility Wind Dir Wind Speed Gust Speed Precip Events Conditions
12:53 AM 48.0 °F - 34.0 °F 58% 30.33 in 10.0 mi East 5.8 mph - N/A   Clear
1:53 AM 46.9 °F - 33.1 °F 59% 30.34 in 10.0 mi East 3.5 mph - N/A   Clear
2:53 AM 46.9 °F - 32.0 °F 56% 30.33 in 10.0 mi Variable 3.5 mph - N/A   Clear
3:53 AM 46.0 °F - 32.0 °F 58% 30.31 in 10.0 mi Calm Calm - N/A   Clear
4:53 AM 46.0 °F 43.9 °F 30.9 °F 56% 30.30 in 10.0 mi ESE 4.6 mph - N/A   Clear
5:53 AM 46.0 °F 43.9 °F 30.9 °F 56% 30.28 in 10.0 mi ESE 4.6 mph - N/A   Clear
6:53 AM 45.0 °F 42.6 °F 32.0 °F 60% 30.28 in 10.0 mi ESE 4.6 mph - N/A   Clear
7:53 AM 46.0 °F 42.5 °F 33.1 °F 61% 30.26 in 10.0 mi Variable 6.9 mph - N/A   Clear
8:53 AM 46.9 °F - 34.0 °F 61% 30.26 in 10.0 mi SE 5.8 mph - N/A   Clear
9:53 AM 53.1 °F - 37.0 °F 55% 30.24 in 10.0 mi Variable 6.9 mph - N/A   Clear
10:53 AM 57.9 °F - 34.0 °F 41% 30.20 in 10.0 mi SE 13.8 mph 25.3 mph N/A   Partly Cloudy
11:53 AM 63.0 °F - 35.1 °F 35% 30.17 in 10.0 mi SE 15.0 mph 25.3 mph N/A   Partly Cloudy
12:53 PM 64.0 °F - 36.0 °F 35% 30.14 in 10.0 mi SSE 19.6 mph 26.5 mph N/A   Clear
1:53 PM 66.9 °F - 37.0 °F 33% 30.08 in 10.0 mi SSE 18.4 mph 27.6 mph N/A   Clear
2:53 PM 68.0 °F - 39.0 °F 35% 30.05 in 10.0 mi SE 13.8 mph 24.2 mph N/A   Clear
3:53 PM 66.9 °F - 37.9 °F 34% 30.02 in 10.0 mi SE 13.8 mph 25.3 mph N/A   Scattered Clouds
4:53 PM 66.0 °F - 37.9 °F 36% 29.98 in 10.0 mi SE 12.7 mph 25.3 mph N/A   Partly Cloudy
5:53 PM 64.0 °F - 39.9 °F 41% 29.97 in 10.0 mi SE 9.2 mph - 0.00 in Rain Light Rain
6:53 PM 63.0 °F - 43.0 °F 48% 29.98 in 10.0 mi SSE 8.1 mph - 0.00 in   Overcast
7:53 PM 63.0 °F - 44.1 °F 50% 29.94 in 10.0 mi SE 13.8 mph 20.7 mph 0.00 in Rain Light Rain
8:53 PM 61.0 °F - 46.9 °F 60% 29.91 in 10.0 mi SSE 13.8 mph 23.0 mph 0.01 in   Overcast
9:01 PM 62.6 °F - 46.4 °F 55% 29.90 in 10.0 mi SE 15.0 mph 26.5 mph N/A   Overcast
9:53 PM 62.1 °F - 48.0 °F 60% 29.89 in 10.0 mi SSE 21.9 mph 31.1 mph N/A   Overcast
10:16 PM 62.6 °F - 48.2 °F 59% 29.89 in 10.0 mi SSE 18.4 mph 25.3 mph N/A   Overcast
10:53 PM 62.1 °F - 50.0 °F 65% 29.87 in 10.0 mi SSE 18.4 mph 28.8 mph N/A   Overcast
11:50 PM 59.0 °F - 53.6 °F 82% 29.86 in 9.0 mi SSE 15.0 mph 25.3 mph 0.02 in Rain Light Rain
11:53 PM 59.0 °F - 54.0 °F 83% 29.85 in 10.0 mi SSE 17.3 mph 25.3 mph 0.04 in Rain Light Rain